Diyarbakir, Turkey

9:23 AM +03 on February 24, 2017 (GMT +0300)
Diyarbakir

Weather History for LTCC - August, 2013

Change the Weather History Date:

Thursday, August 1, 2013

  Actual Average Record
Temperature  
Mean Temperature 86 °F -  
Max Temperature 100 °F 100 °F 111 °F (2008)
Min Temperature 71 °F 70 °F 64 °F (1996)
Cooling Degree Days 20    
Growing Degree Days 36 (Base 50)    
Moisture  
Dew Point 29 °F    
Average Humidity 13    
Maximum Humidity 22    
Minimum Humidity 4    
Precipitation  
Precipitation 0.00 in 0.00 in - ()
Sea Level Pressure  
Sea Level Pressure 29.58 in    
Wind  
Wind Speed 9 mph ()    
Max Wind Speed 15 mph    
Max Gust Speed -    
Visibility 12.0 miles    
Events      
Averages and records for this station are not official NWS values.
T = Trace of Precipitation, MM = Missing Value Source: Averaged Metar Reports

Daily Weather History Graph

Daily Weather History Graph

Search for Another Location

Airport or City:

Trip Planner

Search our weather history database for the weather conditions in past years. The results will help you decide how hot, cold, wet, or windy it might be!

Date:

Astronomy

Aug. 01, 2013 Rise Set
Actual Time 5:22 AM EEST 7:28 PM EEST
Civil Twilight 4:53 AM EEST 7:57 PM EEST
Nautical Twilight 4:17 AM EEST 8:32 PM EEST
Astronomical Twilight 3:38 AM EEST 9:11 PM EEST
Moon 12:43 AM EEST (8/1) 3:17 PM EEST (8/1)
Length of Visible Light 15h 04m
Length of Day
14h 05m
Waning Crescent, 26% of the Moon is Illuminated
Aug 1
Waning Crescent
Aug 7
New
Aug 14
First Quarter
Aug 21
Full
Aug 28
Last Quarter

Hourly Weather History & Observations

Time (EEST) Temp. Dew Point Humidity Pressure Visibility Wind Dir Wind Speed Gust Speed Precip Events Conditions
12:20 AM 80.6 °F 19.4 °F 10% 29.56 in - WNW 9.2 mph - N/A   Clear
12:50 AM 80.6 °F 21.2 °F 11% 29.56 in - WNW 13.8 mph - N/A   Clear
1:20 AM 78.8 °F 23.0 °F 13% 29.56 in - WNW 11.5 mph - N/A   Clear
1:50 AM 78.8 °F 23.0 °F 13% 29.56 in - WNW 10.4 mph - N/A   Clear
2:20 AM 77.0 °F 26.6 °F 16% 29.56 in - WNW 9.2 mph - N/A   Clear
2:50 AM 77.0 °F 28.4 °F 17% 29.56 in - WNW 9.2 mph - N/A   Clear
3:00 AM 77 °F 27 °F 8% 29.41 in 12 mi WNW 9.2 mph - -  
3:20 AM 73.4 °F 28.4 °F 19% 29.56 in - West 8.1 mph - N/A   Clear
3:50 AM 73.4 °F 28.4 °F 19% 29.56 in - West 9.2 mph - N/A   Clear
4:20 AM 73.4 °F 30.2 °F 20% 29.59 in - WNW 9.2 mph - N/A   Clear
4:50 AM 71.6 °F 30.2 °F 22% 29.59 in - WNW 9.2 mph - N/A   Clear
5:20 AM 71.6 °F 30.2 °F 22% 29.59 in - WNW 9.2 mph - N/A   Clear
5:50 AM 73.4 °F 30.2 °F 20% 29.59 in - WNW 11.5 mph - N/A   Clear
6:20 AM 75.2 °F 32.0 °F 21% 29.59 in - WNW 9.2 mph - N/A   Clear
6:50 AM 78.8 °F 32.0 °F 18% 29.62 in - WNW 9.2 mph - N/A   Clear
7:20 AM 80.6 °F 33.8 °F 18% 29.62 in - NW 13.8 mph - N/A   Clear
7:50 AM 82.4 °F 33.8 °F 17% 29.62 in - WNW 12.7 mph - N/A   Clear
8:20 AM 86.0 °F 33.8 °F 15% 29.62 in - NW 11.5 mph - N/A   Clear
8:50 AM 86.0 °F 33.8 °F 15% 29.62 in - North 10.4 mph - N/A   Clear
9:00 AM 86 °F 32 °F 7% 29.47 in 12 mi North 10.4 mph - -  
9:20 AM 87.8 °F 33.8 °F 15% 29.62 in - North 9.2 mph - N/A   Clear
9:50 AM 89.6 °F 33.8 °F 14% 29.62 in - North 8.1 mph - N/A   Clear
10:20 AM 91.4 °F 33.8 °F 13% 29.62 in - NNW 9.2 mph - N/A   Clear
10:50 AM 93.2 °F 35.6 °F 13% 29.62 in - NNW 9.2 mph - N/A   Clear
11:20 AM 95.0 °F 35.6 °F 12% 29.62 in - Variable 4.6 mph - N/A   Clear
11:50 AM 96.8 °F 33.8 °F 11% 29.59 in - Variable 4.6 mph - N/A   Clear
12:20 PM 95.0 °F 33.8 °F 12% 29.59 in - Variable 8.1 mph - N/A   Clear
12:50 PM 98.6 °F 35.6 °F 11% 29.59 in - NNW 9.2 mph - N/A   Clear
1:20 PM 98.6 °F 33.8 °F 10% 29.59 in - Variable 4.6 mph - N/A   Clear
1:50 PM 98.6 °F 32.0 °F 10% 29.59 in - Variable 9.2 mph - N/A   Clear
2:20 PM 98.6 °F 30.2 °F 9% 29.56 in - Variable 6.9 mph - N/A   Clear
2:50 PM 98.6 °F 32.0 °F 10% 29.56 in - North 6.9 mph - N/A   Clear
3:00 PM 99 °F 29 °F 4% 29.40 in 12 mi North 6.9 mph - -  
3:20 PM 98.6 °F 32.0 °F 10% 29.56 in - WNW 9.2 mph - N/A   Clear
3:50 PM 98.6 °F 30.2 °F 9% 29.56 in - NW 6.9 mph - N/A   Clear
4:20 PM 98.6 °F 32.0 °F 10% 29.56 in - NW 9.2 mph - N/A   Clear
4:50 PM 98.6 °F 32.0 °F 10% 29.56 in - WNW 11.5 mph - N/A   Clear
5:20 PM 98.6 °F 30.2 °F 9% 29.56 in - WNW 15.0 mph - N/A   Clear
5:50 PM 96.8 °F 30.2 °F 10% 29.56 in - WNW 13.8 mph - N/A   Clear
6:20 PM 96.8 °F 30.2 °F 10% 29.56 in - NW 13.8 mph - N/A   Clear
6:50 PM 95.0 °F 28.4 °F 9% 29.59 in - WNW 13.8 mph - N/A   Clear
7:20 PM 91.4 °F 30.2 °F 11% 29.59 in - WNW 10.4 mph - N/A   Clear
7:50 PM 89.6 °F 26.6 °F 10% 29.59 in - NW 11.5 mph - N/A   Clear
8:20 PM 89.6 °F 23.0 °F 9% 29.59 in - NW 13.8 mph - N/A   Clear
8:50 PM 87.8 °F 23.0 °F 9% 29.62 in - NW 13.8 mph - N/A   Clear
9:00 PM 88 °F 23 °F 4% 29.46 in 12 mi NW 13.8 mph - -  
9:20 PM 87.8 °F 21.2 °F 9% 29.62 in - NW 13.8 mph - N/A   Clear
9:50 PM 80.6 °F 26.6 °F 14% 29.62 in - WNW 6.9 mph - N/A   Clear
10:20 PM 80.6 °F 24.8 °F 13% 29.65 in - WNW 5.8 mph - N/A   Clear
10:50 PM 78.8 °F 23.0 °F 13% 29.65 in - West 8.1 mph - N/A   Clear
11:20 PM 80.6 °F 23.0 °F 12% 29.65 in - WNW 4.6 mph - N/A   Clear
11:50 PM 77.0 °F 23.0 °F 13% 29.65 in - West 8.1 mph - N/A   Clear